Location: *
(43.4667°N, 11.6833°E)
Time: 11:08:00
(UTC+00:00)

Cosmos 1954 Rocket - Pass Details

Date: 19 July 2019
Orbit: 751 x 782 km, 74.0° (Epoch: 20 August)

Event Time Altitude Azimuth Distance (km) Brightness Sun altitude
Exits shadow 20:42:33 27° 153° (SSE) 1,446 4.8 -16.3°
Maximum altitude 20:44:48 41° 103° (ESE) 1,103 4.4 -16.6°
Drops below altitude 10° 20:49:43 10° 34° (NE) 2,322 6.7 -17.1°
Sets 20:52:13 0° 27° (NNE) 3,258 7.6 -17.4°
